Missoula, MT

11:22 PM MDT on May 22, 2017 (GMT -0600)
Missoula International

Weather History for KMSO - November, 2010

Change the Weather History Date:

Sunday, November 14, 2010

  Actual Average Record
Temperature  
Mean Temperature 36 °F 34 °F  
Max Temperature 38 °F 42 °F 61 °F (1995)
Min Temperature 33 °F 26 °F -11 °F (1955)
Degree Days  
Heating Degree Days 29 31  
Month to date heating degree days 370 398  
Since 1 July heating degree days 1207 1340  
Cooling Degree Days 0 0  
Month to date cooling degree days 0 0  
Year to date cooling degree days 244 332  
Moisture  
Dew Point 33 °F    
Average Humidity 82    
Maximum Humidity 100    
Minimum Humidity 64    
Precipitation  
Precipitation 0.08 in 0.04 in 0.34 in (1927)
Month to date precipitation 0.18 0.46  
Year to date precipitation 13.56 12.54  
Snow  
Snow 0.20 in - - ()
Month to date snowfall 0.2  
Year to date snowfall 9.0  
Since 1 July snowfall 0.2  
Snow Depth 0.00 in    
Sea Level Pressure  
Sea Level Pressure 30.09 in    
Wind  
Wind Speed 1 mph (NW)    
Max Wind Speed 7 mph    
Max Gust Speed 8 mph    
Visibility 7 miles    
Events Rain , Snow    
T = Trace of Precipitation, MM = Missing Value Source: NWS Daily Summary

Daily Weather History Graph

Daily Weather History Graph

Search for Another Location

Airport or City:

Trip Planner

Search our weather history database for the weather conditions in past years. The results will help you decide how hot, cold, wet, or windy it might be!

Date:

Astronomy

Nov. 14, 2010 Rise Set
Actual Time 7:38 AM MST 5:02 PM MST
Civil Twilight 7:05 AM MST 5:35 PM MST
Nautical Twilight 6:28 AM MST 6:12 PM MST
Astronomical Twilight 5:52 AM MST 6:48 PM MST
Moon 1:46 PM MST (11/14) 12:25 AM MST (11/14)
Length of Visible Light 10h 30m
Length of Day
9h 24m
First Quarter, 60% of the Moon is Illuminated
Nov 14
First Quarter
Nov 21
Full
Nov 28
Last Quarter
Dec 5
New
Dec 13
First Quarter

Hourly Weather History & Observations

Time (MST) Temp. Windchill Dew Point Humidity Pressure Visibility Wind Dir Wind Speed Gust Speed Precip Events Conditions
12:53 AM 36.0 °F 29.6 °F 28.9 °F 76% 30.29 in 10.0 mi WNW 8.1 mph - N/A   Overcast
1:53 AM 37.0 °F 34.5 °F 28.0 °F 70% 30.25 in 10.0 mi WNW 3.5 mph - N/A   Overcast
2:38 AM 37.4 °F 34.9 °F 28.4 °F 70% 30.19 in 10.0 mi WNW 3.5 mph - N/A   Overcast
2:53 AM 37.0 °F 33.3 °F 28.9 °F 73% 30.26 in 10.0 mi Variable 4.6 mph - N/A   Overcast
3:16 AM 35.6 °F 28.0 °F 30.2 °F 81% 30.19 in 10.0 mi NNW 10.4 mph - 0.00 in   Overcast
3:27 AM 35.6 °F 30.7 °F 32.0 °F 87% 30.19 in 10.0 mi NNW 5.8 mph - 0.00 in   Overcast
3:53 AM 35.1 °F 31.0 °F 32.0 °F 89% 30.25 in 10.0 mi NNW 4.6 mph - 0.00 in   Overcast
4:53 AM 34.0 °F - 33.1 °F 96% 30.24 in 10.0 mi Calm Calm - N/A   Overcast
5:53 AM 34.0 °F - 32.0 °F 92% 30.21 in 10.0 mi Calm Calm - N/A   Overcast
6:53 AM 35.1 °F - 33.1 °F 92% 30.19 in 10.0 mi Calm Calm - N/A   Overcast
7:53 AM 35.1 °F - 33.1 °F 92% 30.18 in 10.0 mi Calm Calm - N/A   Overcast
8:04 AM 35.6 °F - 33.8 °F 93% 30.11 in 10.0 mi Calm Calm - 0.00 in   Overcast
8:53 AM 35.1 °F - 33.1 °F 92% 30.16 in 4.0 mi Calm Calm - 0.01 in Snow Light Snow
9:29 AM 33.8 °F - 32.0 °F 93% 30.08 in 2.0 mi Calm Calm - 0.01 in Snow Light Snow
9:36 AM 33.8 °F - 32.0 °F 93% 30.08 in 1.8 mi Calm Calm - 0.01 in Snow Light Snow
9:39 AM 33.8 °F - 32.0 °F 93% 30.08 in 2.5 mi Calm Calm - 0.01 in Snow Light Snow
9:53 AM 34.0 °F - 33.1 °F 96% 30.14 in 3.0 mi Calm Calm - 0.01 in Snow Light Snow
10:03 AM 33.8 °F - 32.0 °F 93% 30.07 in 2.5 mi Calm Calm - 0.00 in Snow Light Snow
10:18 AM 33.8 °F - 32.0 °F 93% 30.07 in 1.8 mi Calm Calm - 0.01 in Snow Light Snow
10:27 AM 33.8 °F - 33.8 °F 100% 30.06 in 2.5 mi Calm Calm - 0.01 in Snow Light Snow
10:48 AM 33.8 °F - 33.8 °F 100% 30.06 in 4.0 mi Calm Calm - 0.02 in Snow Light Snow
11:17 AM 33.8 °F - 33.8 °F 100% 30.06 in 2.0 mi Calm Calm - 0.03 in Snow Light Snow
11:26 AM 33.8 °F - 33.8 °F 100% 30.05 in 2.5 mi Calm Calm - 0.03 in Snow Light Snow
11:53 AM 34.0 °F - 33.1 °F 96% 30.11 in 2.0 mi Calm Calm - 0.04 in Snow Light Snow
12:02 PM 33.8 °F - 33.8 °F 100% 30.04 in 1.8 mi Calm Calm - 0.00 in Snow Light Snow
12:10 PM 33.8 °F - 32.0 °F 93% 30.03 in 2.0 mi Calm Calm - 0.00 in Snow Light Snow
12:13 PM 33.8 °F - 32.0 °F 93% 30.03 in 3.0 mi Calm Calm - 0.01 in Snow Light Snow
12:30 PM 33.8 °F - 33.8 °F 100% 30.03 in 3.0 mi Calm Calm - 0.01 in   Overcast
12:53 PM 34.0 °F - 33.1 °F 96% 30.09 in 9.0 mi Calm Calm - 0.01 in   Overcast
1:00 PM 33.8 °F - 33.8 °F 100% 30.01 in 10.0 mi Calm Calm - N/A   Overcast
1:27 PM 35.6 °F - 33.8 °F 93% 30.01 in 10.0 mi Calm Calm - N/A   Overcast
1:53 PM 35.1 °F - 34.0 °F 96% 30.07 in 10.0 mi Calm Calm - N/A   Overcast
2:53 PM 35.1 °F - 34.0 °F 96% 30.06 in 10.0 mi Calm Calm - N/A   Overcast
3:53 PM 36.0 °F - 34.0 °F 93% 30.05 in 10.0 mi Calm Calm - N/A   Overcast
4:14 PM 35.6 °F - 33.8 °F 93% 29.98 in 10.0 mi Calm Calm - N/A   Overcast
4:53 PM 36.0 °F - 34.0 °F 93% 30.04 in 10.0 mi Calm Calm - N/A   Overcast
5:53 PM 36.0 °F 33.3 °F 35.1 °F 97% 30.03 in 10.0 mi ESE 3.5 mph - N/A   Overcast
6:53 PM 36.0 °F - 35.1 °F 97% 30.01 in 10.0 mi Calm Calm - N/A   Overcast
7:53 PM 37.0 °F - 36.0 °F 96% 29.99 in 10.0 mi Calm Calm - 0.00 in   Overcast
8:01 PM 37.4 °F 34.9 °F 35.6 °F 93% 29.93 in 10.0 mi SSE 3.5 mph - 0.00 in Rain Light Rain
8:53 PM 36.0 °F 30.3 °F 35.1 °F 97% 29.98 in 10.0 mi WSW 6.9 mph - 0.00 in   Overcast
9:53 PM 37.0 °F - 36.0 °F 96% 29.99 in 8.0 mi Calm Calm - N/A   Overcast
10:53 PM 36.0 °F - 35.1 °F 97% 29.93 in 6.0 mi Calm Calm - N/A   Overcast
11:53 PM 37.0 °F 34.5 °F 36.0 °F 96% 29.99 in 10.0 mi East 3.5 mph - N/A   Overcast